Flag for U.S.A. Weather past 2 weeks in Cedar Rapids, Iowa, U.S.A.

Now
66 °F

Clear.


Feels Like: 66 °F
Forecast: 61 / 88 °F
Wind: No wind

Location: Cedar Rapids Municipal Airport

Current Time: Jul 31, 2015 at 11:05:41 PM

Latest Report: Jul 31, 2015 at 9:52 PM


Visibility: 10 mi

Pressure: 30.03 "Hg

Humidity: 90%

Dew point: 63 °F

Location of Cedar RapidsLocation

Historic Weather in Cedar Rapids — Graph

°F

Cedar Rapids temperature yesterday

Maximum temperature yesterday: 85 °F (at 2:52 PM)
Minimum temperature yesterday: 60 °F (at 3:52 AM)
Average temperature yesterday: 72 °F

Past Weeks' High & Low Weather Summary

 TemperatureHumidityPressure
High91 °F (Jul 17, 2:52 PM)100% (Jul 16, 9:52 PM)30.12 "Hg (Jul 16, 9:52 PM)
Low57 °F (Jul 22, 2:52 AM)44% (Jul 21, 3:52 PM)29.72 "Hg (Jul 17, 2:52 AM)
Average74 °F84%29.92 "Hg
* Reported Jul 16 9:52 PM — Jul 31 9:52 PM, Cedar Rapids, Weather by CustomWeather, © 2015

Note: Actual official high and low records may vary slightly from our data, if they occured in-between our weather recording intervals... More about our weather records

Advertising

Cedar Rapids weather history for previous 24 hours

 ConditionsComfort  
Time TempWeatherWind HumidityBarometerVisibility
9:52 PM
Fri, Jul 31
66 °FClear.No wind90%30.03 "Hg10 mi
8:52 PM68 °FSunny.6 mph87%30.01 "Hg10 mi
7:52 PM75 °FSunny.5 mph69%30.01 "Hg10 mi
6:52 PM79 °FSunny.7 mph56%30.01 "Hg10 mi
5:52 PM81 °FSunny.12 mph51%30.01 "Hg10 mi
4:52 PM82 °FSunny.12 mph48%30.02 "Hg10 mi
3:52 PM83 °FSunny.10 mph51%30.03 "Hg10 mi
2:52 PM83 °FSunny.10 mph59%30.04 "Hg10 mi
1:52 PM83 °FSunny.15 mph55%30.05 "Hg10 mi
12:52 PM83 °FSunny.15 mph50%30.06 "Hg10 mi
11:52 AM82 °FSunny.12 mph53%30.07 "Hg10 mi
10:52 AM80 °FSunny.7 mph64%30.07 "Hg10 mi
9:52 AM78 °FSunny.8 mph71%30.08 "Hg10 mi
8:52 AM73 °FSunny.7 mph88%30.09 "Hg10 mi
6:52 AM66 °FClear.7 mph96%30.07 "Hg10 mi
5:52 AM64 °FClear.5 mph100%30.05 "Hg10 mi
4:52 AM64 °FClear.6 mph100%30.05 "Hg10 mi
3:52 AM65 °FClear.5 mph97%30.05 "Hg10 mi
2:52 AM66 °FClear.7 mph100%30.06 "Hg10 mi
1:52 AM67 °FClear.6 mph97%30.07 "Hg10 mi
12:52 AM67 °FClear.6 mph100%30.07 "Hg10 mi
11:52 PM
Thu, Jul 30
68 °FClear.7 mph100%30.06 "Hg10 mi
Weather by CustomWeather, © 2015

See weather overviewHow to use our weather pages